Theta_e
302 302 302 302 302 302 302 303 303 303 303 303 304 304 304 304 304 304 304 304 304 304 304 305 306 306 306 307 307 307 306 305 305 305 305 305 306 307 307 308 308 307 307 308 308 309 310 310 309 309 310 310 311 311 312 312 311 314 315 314 313 313 311 310 312 313 311 309 305 304 305 305 303 303 304 304 304 300 300 300 299 300 301 301 301 299 300 299
302 303 303 303 303 303 303 303 303 303 303 303 304 304 304 304 304 304 305 305 304 304 304 305 305 306 307 308 307 308 308 306 305 305 304 305 306 307 307 307 308 308 307 308 308 309 310 310 310 309 310 310 310 310 311 310 309 310 312 312 310 309 306 304 307 307 307 306 303 304 304 306 304 303 304 302 299 299 299 297 298 299 299 299 299 300 300 299
303 303 303 303 303 303 303 303 303 303 303 303 304 304 304 304 304 304 305 305 305 305 305 305 305 306 307 308 308 308 309 307 304 304 304 305 306 306 307 307 308 308 307 308 309 309 309 310 310 310 310 309 308 310 309 308 308 306 309 310 308 306 303 303 304 304 305 304 301 302 304 303 302 303 303 300 299 299 298 297 297 297 297 297 298 298 298 298
303 303 303 303 303 303 303 303 303 303 303 303 304 304 304 304 304 304 305 305 305 306 305 305 305 306 307 309 308 307 310 308 303 303 305 305 306 306 307 307 308 308 308 308 308 309 309 309 310 310 309 307 306 309 306 306 307 305 306 308 306 304 304 303 303 303 304 304 302 301 302 301 301 303 302 301 303 300 298 299 298 297 297 297 297 297 297 297
303 303 303 303 303 303 303 303 303 303 303 303 303 304 304 304 304 304 304 305 305 306 306 306 305 306 306 308 309 308 311 309 303 303 305 305 306 306 306 307 307 308 308 308 308 308 309 309 309 309 307 304 304 307 304 304 306 304 303 304 304 304 304 303 303 304 303 303 303 301 301 301 300 301 300 302 304 300 298 299 298 297 297 297 298 298 299 299
302 302 302 302 303 303 303 303 303 303 303 303 303 304 304 304 305 305 305 305 305 306 306 306 306 306 305 306 307 308 309 306 303 303 304 305 306 306 306 307 307 307 307 307 307 308 308 308 309 307 304 303 303 304 304 305 305 305 303 302 303 304 303 303 304 304 305 305 302 300 300 300 300 299 299 300 299 298 298 298 298 298 298 299 299 299 299 299
302 302 302 302 303 303 303 304 304 304 304 304 304 304 304 304 305 305 305 305 306 306 306 307 306 307 307 307 306 306 305 302 303 304 304 305 306 306 306 307 307 307 307 307 307 308 307 308 307 305 304 304 304 303 304 304 304 304 304 302 302 304 303 303 305 304 306 304 301 301 301 300 300 299 298 298 297 298 299 298 298 298 298 298 298 297 297 296
303 302 303 303 303 303 304 304 304 304 304 304 304 304 304 305 305 305 305 305 306 306 306 306 307 307 308 309 307 305 303 301 303 304 304 305 306 306 307 307 307 307 307 307 307 307 307 307 306 306 305 305 305 304 305 305 304 304 304 303 302 303 303 304 304 304 304 302 301 302 301 299 300 299 297 297 297 298 298 298 299 298 298 298 297 296 295 295
303 303 303 303 303 303 304 304 304 304 304 304 304 305 305 305 305 305 305 305 306 306 306 307 307 306 308 309 307 304 302 301 303 303 304 305 306 306 307 306 306 306 307 307 307 307 307 307 306 307 306 304 305 304 305 306 304 304 304 303 303 302 303 304 303 303 303 302 303 301 298 298 300 299 298 297 297 298 298 298 298 298 297 296 296 296 295 294
303 303 303 303 303 304 304 304 304 304 305 305 305 305 305 305 305 305 305 306 306 306 307 306 306 307 308 309 307 304 302 302 302 303 303 304 306 306 306 306 306 306 306 306 307 307 307 307 307 308 306 305 305 304 305 306 305 303 303 303 303 303 303 303 303 303 303 302 303 301 297 298 300 300 299 297 297 297 297 297 297 296 296 295 295 294 294 294
303 303 303 303 303 304 304 305 305 305 305 305 305 305 305 305 305 305 306 306 306 306 307 307 307 307 308 308 306 303 302 302 302 303 303 304 305 306 306 307 307 307 307 306 307 307 307 307 307 308 307 306 305 304 304 304 304 303 303 303 302 303 303 303 303 302 303 302 302 302 298 298 300 301 300 297 297 297 297 296 296 296 295 295 295 294 294 294
303 303 303 303 304 304 304 304 304 305 305 305 305 305 305 305 306 306 307 307 307 306 307 307 307 307 308 307 304 302 303 303 303 303 303 303 304 305 306 307 307 308 307 307 306 306 307 307 308 307 307 305 304 304 304 304 304 303 304 304 303 305 304 303 303 303 303 302 302 302 303 304 303 300 298 297 297 297 296 296 296 296 295 295 295 295 295 294
303 303 304 304 304 304 304 304 304 304 305 305 305 305 305 305 305 305 306 307 307 307 307 307 307 307 307 305 303 303 303 303 303 303 303 303 303 305 306 306 307 308 307 307 306 306 307 307 307 306 305 305 304 305 304 304 304 304 303 303 307 311 307 302 303 303 303 302 302 302 306 310 304 298 297 298 297 297 297 296 296 296 295 295 295 295 295 295
304 304 304 304 304 304 304 304 304 304 305 305 305 306 306 306 306 305 305 307 307 307 307 307 307 308 307 305 303 304 303 304 305 304 304 303 304 305 306 306 307 307 307 307 306 306 306 307 307 306 305 305 304 305 306 305 305 305 304 305 310 312 306 303 302 303 304 303 302 303 305 309 304 298 297 297 297 297 297 296 296 296 296 295 295 295 295 295
304 304 304 304 304 304 304 304 305 305 305 306 306 306 306 306 306 306 306 307 307 307 307 307 307 307 306 304 304 304 304 305 305 305 305 304 305 305 306 307 306 306 306 307 307 306 306 307 306 305 304 305 305 307 309 309 308 306 306 308 309 308 306 305 302 302 304 303 302 304 306 309 305 299 297 297 297 297 297 297 296 296 296 296 296 296 295 295
304 304 304 304 304 304 304 304 305 305 305 305 306 306 307 307 307 307 307 307 307 307 307 308 307 307 306 304 305 304 304 305 305 305 305 305 306 306 306 306 306 305 305 305 305 305 306 306 305 303 303 303 304 307 312 312 312 308 306 307 307 305 305 305 303 301 302 302 302 303 304 307 304 299 298 298 297 297 297 297 296 296 296 296 296 296 296 295
305 305 304 304 304 304 304 305 305 305 305 305 305 306 307 306 307 307 307 307 308 307 307 307 307 308 306 304 304 304 304 304 304 305 306 306 306 306 306 306 306 305 305 305 305 305 305 304 304 302 301 301 300 307 314 311 310 310 307 308 306 303 304 304 304 302 301 302 303 302 303 306 303 298 298 298 297 297 297 297 297 296 297 296 296 296 296 296
305 305 305 305 305 305 305 305 305 305 305 305 305 307 308 307 306 307 307 308 308 308 308 307 308 310 307 304 304 303 303 304 305 305 305 306 306 305 305 306 307 306 305 305 304 305 304 302 302 301 300 300 298 304 311 308 307 307 307 308 307 304 304 303 303 302 301 301 303 304 303 304 303 298 297 298 298 297 297 297 297 297 297 296 296 296 296 296
305 305 305 305 305 305 305 305 305 305 305 305 305 307 309 308 307 307 307 307 307 306 306 305 306 308 305 303 304 304 304 304 305 305 306 306 306 305 306 307 307 305 305 305 303 302 302 301 301 301 300 300 299 300 304 305 306 306 305 306 304 303 303 301 302 301 299 301 304 304 303 302 302 300 297 298 298 298 297 297 297 297 297 297 297 297 296 296
305 305 305 306 306 305 306 305 306 305 305 306 305 307 310 309 308 307 306 306 305 303 303 303 303 304 303 303 304 304 305 305 305 306 306 306 306 306 306 306 306 304 303 305 304 300 300 300 300 301 301 300 300 299 300 302 303 304 305 305 302 301 301 300 301 300 298 301 305 303 302 301 301 300 297 297 298 297 297 298 297 297 297 297 297 297 297 297
305 305 305 306 305 305 305 305 306 306 306 306 306 307 307 308 309 308 305 305 303 303 304 303 303 303 303 304 304 304 305 305 305 306 306 306 306 307 305 303 304 303 300 302 303 300 299 301 300 301 299 299 299 298 299 301 303 304 306 306 303 300 300 300 300 300 298 300 304 303 302 301 299 298 296 296 297 297 297 298 298 298 298 298 297 297 297 297
305 305 305 305 305 306 305 305 306 306 305 306 306 306 306 307 308 307 306 305 304 304 304 303 304 304 303 304 304 304 304 305 305 305 305 306 306 306 304 301 302 301 299 302 305 302 301 302 301 300 297 297 299 298 300 302 303 305 306 307 305 300 301 302 301 301 298 300 305 304 301 300 298 296 296 296 297 297 298 298 298 298 298 298 298 298 298 297
305 305 306 305 306 305 305 305 305 305 305 305 305 305 306 306 306 306 306 306 305 304 304 304 304 304 304 304 304 304 303 303 303 303 304 305 305 305 303 301 303 302 300 303 305 302 302 302 300 298 297 300 302 299 299 301 302 304 304 305 303 300 301 302 301 300 298 300 303 303 301 299 298 297 296 296 298 298 298 298 298 298 298 298 298 298 298 298
305 305 305 306 306 305 305 305 305 305 305 305 305 305 305 305 306 306 305 305 305 305 305 304 303 304 304 303 304 305 303 302 302 302 303 304 305 305 303 302 305 305 301 301 302 301 301 299 298 298 299 303 303 299 299 300 302 303 303 303 301 300 300 300 301 300 300 301 300 302 305 301 298 298 296 296 297 297 298 298 298 298 298 298 298 298 298 298
305 305 306 306 306 306 305 305 305 306 305 305 305 304 304 303 304 305 306 309 307 305 306 305 303 304 304 303 304 304 304 303 302 302 302 303 305 306 304 303 304 305 303 302 302 301 300 298 298 301 303 304 303 301 300 300 302 304 303 301 301 300 299 300 301 301 304 305 300 303 308 303 299 299 298 296 296 296 297 297 298 298 299 299 299 299 298 298
305 306 306 306 306 306 306 305 305 305 305 305 304 304 304 303 304 304 309 319 314 304 306 306 303 304 304 303 304 305 307 306 302 301 302 303 304 305 306 304 303 304 303 302 301 300 299 298 298 300 303 304 303 301 299 299 302 304 301 301 300 299 299 300 302 303 305 305 301 303 308 305 301 300 299 298 297 297 297 296 297 298 298 299 299 299 298 298
306 306 306 306 306 306 306 305 304 305 305 304 304 304 303 303 305 303 311 326 318 304 304 306 303 304 304 303 303 307 309 307 303 301 301 303 303 304 306 304 303 302 299 302 305 301 300 300 299 300 301 302 300 299 300 299 300 303 302 301 300 298 299 300 302 304 303 305 306 304 305 306 303 300 299 298 297 298 298 296 296 297 297 298 298 298 298 298
306 306 306 307 306 306 306 305 305 305 304 304 304 304 304 304 304 305 315 321 310 304 304 304 303 304 304 303 303 305 305 303 303 302 300 302 303 303 304 303 302 300 298 305 309 300 299 302 300 300 300 300 299 298 299 299 300 304 301 299 298 298 299 300 303 305 303 307 309 302 302 306 303 300 299 298 298 298 298 298 296 296 297 297 297 298 297 297
305 305 306 306 306 306 305 305 305 304 304 304 304 303 304 303 302 310 323 316 304 304 304 303 304 303 302 303 302 301 302 302 303 302 300 301 302 302 303 302 301 300 299 303 306 300 298 300 299 299 300 299 299 298 297 298 301 302 298 299 301 300 301 302 303 304 306 310 307 300 300 304 303 301 299 299 298 298 298 298 296 296 297 297 297 297 297 296
305 306 306 305 306 306 305 305 305 304 304 304 304 304 303 304 311 322 321 310 303 303 303 303 303 301 302 306 306 301 300 301 301 301 300 300 300 300 301 301 300 302 302 301 303 301 298 299 299 298 299 298 298 298 296 296 298 299 298 302 304 302 302 304 302 304 310 312 306 300 299 301 303 300 298 298 298 297 299 299 296 296 297 297 297 296 296 296
305 306 305 306 306 305 306 306 304 305 304 303 304 305 304 310 326 332 312 303 305 305 304 303 301 301 303 305 305 301 301 302 300 301 302 300 298 298 299 301 301 307 309 303 303 304 301 302 300 298 298 297 298 300 299 297 297 298 300 302 305 306 304 306 308 309 312 309 304 301 299 301 305 303 298 299 298 296 297 298 297 296 296 296 296 296 296 295
305 305 306 306 306 306 306 305 305 305 303 305 306 306 311 317 321 319 308 304 306 305 304 302 301 302 303 304 302 300 302 303 300 300 301 300 297 296 297 298 299 308 312 304 303 305 305 303 299 298 298 296 299 303 303 303 301 299 301 302 308 312 308 308 312 310 308 306 302 299 299 303 305 303 300 299 299 297 296 297 297 295 296 296 296 296 296 295
305 305 305 306 305 306 306 305 306 305 303 307 307 308 325 331 313 305 307 307 303 301 301 301 302 302 303 307 304 300 301 302 301 299 298 299 300 299 298 295 296 304 307 303 302 305 308 305 300 300 300 297 298 301 302 304 303 300 301 302 306 310 308 308 308 304 306 306 302 297 299 303 302 300 300 299 297 297 296 296 296 295 295 296 295 295 295 295
304 305 305 305 306 305 306 306 305 305 305 307 309 314 326 323 309 304 307 306 300 300 301 300 303 304 303 305 301 299 302 301 300 301 301 303 304 303 300 296 296 300 303 304 301 301 306 307 302 300 299 297 297 298 297 299 300 301 300 301 303 303 303 305 305 304 305 304 302 300 300 302 302 300 299 298 296 297 297 296 296 296 296 295 295 295 295 295
304 305 305 305 306 306 306 306 305 306 305 307 316 326 323 312 308 308 307 303 300 303 302 300 305 308 307 307 301 298 301 301 301 303 303 304 302 300 300 298 296 297 301 305 300 298 302 303 301 299 297 296 297 296 295 297 301 301 300 302 303 300 300 302 301 300 301 301 304 305 302 301 300 297 296 296 295 296 296 296 296 295 295 295 295 295 295 294
304 305 305 305 306 305 307 306 306 307 305 310 324 326 314 306 306 308 306 302 302 304 304 303 308 311 310 311 307 302 300 299 302 306 304 300 299 299 299 298 296 295 299 303 300 299 302 303 302 300 297 296 296 296 296 297 300 302 302 302 299 297 299 301 300 298 298 301 304 303 301 300 299 298 297 295 295 296 295 295 296 295 295 295 295 295 294 294
304 305 305 305 305 306 307 306 306 307 304 314 327 316 302 299 300 302 302 301 300 300 304 307 306 305 306 310 309 305 302 300 303 308 305 300 300 300 299 298 296 294 296 299 299 298 300 304 303 299 299 298 295 296 297 296 297 301 303 299 296 297 300 300 300 301 302 304 304 301 299 300 300 299 297 295 296 298 296 295 295 295 295 295 295 295 295 295
304 305 304 305 305 305 306 305 307 307 305 313 319 308 299 297 297 297 299 298 298 299 305 309 303 300 304 307 305 303 304 305 306 308 305 302 302 299 297 298 296 294 294 296 300 297 296 304 304 298 299 299 296 297 300 298 296 298 298 296 297 301 303 300 300 302 302 303 304 301 298 298 300 299 298 296 297 298 297 295 294 294 295 295 295 295 295 295
304 305 304 304 305 305 306 307 305 306 310 316 315 306 300 299 297 296 297 298 298 300 304 305 300 300 302 303 303 301 302 305 304 304 302 302 302 298 296 297 296 295 294 295 299 297 295 302 306 301 297 297 298 301 301 300 298 298 298 298 300 302 300 298 299 300 300 302 303 302 301 302 302 301 300 298 298 298 298 296 294 294 295 294 294 295 295 295
303 304 305 303 305 305 305 306 305 308 314 313 309 303 299 300 298 295 296 298 297 299 302 301 300 302 301 300 300 299 301 303 302 303 302 300 300 298 296 295 295 296 295 295 297 296 296 300 304 304 300 299 301 300 297 298 298 299 300 299 301 301 298 298 298 297 299 302 302 301 303 305 302 300 300 300 298 297 296 295 294 294 294 295 295 295 295 295
303 305 305 303 305 305 305 307 305 303 307 304 300 300 299 299 298 295 296 297 296 297 299 300 300 302 302 301 300 298 302 304 302 302 302 299 299 298 295 294 294 294 295 298 298 296 297 298 300 304 304 303 301 296 294 296 295 297 297 297 299 300 300 301 300 298 297 298 300 300 301 304 300 297 297 298 296 295 295 295 294 294 295 295 295 295 295 295
302 304 303 303 305 304 305 309 299 296 304 303 298 299 300 299 297 296 296 296 296 296 297 298 299 300 302 301 300 299 302 304 303 302 300 299 299 299 296 294 294 294 295 298 296 294 296 297 299 303 302 300 297 293 292 293 293 294 294 295 298 298 300 303 301 300 297 295 296 296 298 303 300 294 294 295 295 295 295 295 294 294 295 295 295 295 295 295
302 303 303 303 305 303 306 308 300 298 302 299 295 297 299 298 297 297 296 296 297 297 297 298 298 299 299 297 298 300 300 301 302 300 300 299 298 296 295 293 294 295 296 297 295 294 297 299 300 303 304 301 296 292 290 289 291 295 295 296 296 296 299 301 298 297 297 296 297 296 298 304 300 294 294 295 295 295 296 295 294 295 295 295 295 294 294 295
301 302 303 303 303 305 309 311 309 305 299 296 296 297 297 296 296 297 297 297 298 297 298 299 297 297 297 295 298 299 297 300 300 298 299 300 298 295 294 294 295 295 295 297 296 294 297 300 300 302 307 307 303 301 297 295 295 298 297 296 296 295 296 297 295 295 296 297 297 298 302 306 300 295 294 294 294 295 295 295 295 295 295 295 295 294 295 295
302 304 303 303 303 304 307 307 307 306 300 299 299 298 297 297 296 297 297 296 296 296 298 299 297 296 295 294 297 296 294 298 299 297 297 298 297 295 294 294 294 294 295 295 294 294 296 298 299 302 306 306 306 306 303 300 299 298 296 295 295 296 296 295 295 296 298 296 294 297 302 303 298 296 296 294 293 294 295 295 295 295 295 295 294 294 295 295
303 305 304 303 304 303 302 300 300 302 301 303 302 298 299 299 296 295 296 296 296 296 296 297 296 296 297 296 298 299 296 295 297 298 298 298 297 294 293 294 294 294 295 294 293 295 297 297 297 301 304 304 304 303 299 297 298 298 296 295 295 296 295 296 296 297 297 295 295 297 298 298 296 296 296 296 295 294 294 294 294 295 295 295 294 294 295 294
302 304 302 303 304 303 301 299 299 300 301 304 303 300 300 301 297 295 295 295 297 296 296 296 295 297 299 299 301 302 298 296 296 297 299 299 296 292 292 293 294 294 295 294 293 295 298 298 296 297 300 300 300 299 296 295 296 296 296 295 295 295 295 295 296 296 295 295 298 298 295 295 297 296 295 296 295 294 293 293 294 295 295 294 294 294 295 294
303 301 299 302 305 303 302 301 300 299 298 301 302 299 300 302 299 298 297 295 296 297 297 298 297 298 300 299 301 302 299 299 299 297 298 297 295 294 293 292 293 294 294 293 292 294 296 297 296 295 298 298 297 296 295 294 295 295 295 294 294 295 295 295 295 294 294 296 299 298 295 295 296 295 295 295 294 293 294 294 295 294 294 294 294 294 295 295
301 300 299 300 302 300 300 300 298 299 298 300 301 299 300 303 302 299 296 295 297 296 296 300 302 300 297 297 302 306 302 301 301 299 299 299 296 297 297 295 294 293 293 293 292 291 295 299 296 294 296 297 296 295 294 293 294 295 294 294 294 294 294 295 294 294 294 294 295 295 294 294 294 294 294 294 294 294 294 294 294 294 294 294 294 295 295 294
300 300 299 300 299 297 298 298 298 301 301 300 303 301 299 303 303 298 295 296 300 298 295 300 304 299 294 295 301 305 301 299 301 300 300 299 297 298 299 298 295 293 292 293 292 291 294 298 296 294 297 299 299 297 294 293 294 295 295 294 293 293 294 294 293 293 293 294 293 293 293 293 293 293 294 294 294 294 294 294 294 294 294 294 294 295 294 294
301 301 299 300 300 297 298 297 297 301 303 302 305 302 300 303 302 298 297 296 298 299 297 298 301 297 294 296 299 300 297 296 298 298 297 298 297 297 297 295 295 296 295 293 293 293 294 297 296 295 298 301 301 300 297 293 293 294 296 297 295 294 296 296 293 293 294 294 294 294 294 295 294 294 293 294 294 294 293 294 294 294 294 294 294 295 294 294
300 300 299 301 302 298 297 297 297 301 303 301 301 300 300 302 299 297 299 298 296 298 297 295 298 299 298 298 298 298 297 296 296 296 296 296 296 296 296 294 294 297 296 294 293 293 294 297 297 295 298 302 301 297 294 294 298 301 303 304 302 298 297 296 295 294 294 294 295 296 297 296 294 293 293 294 293 293 294 294 294 294 293 294 294 295 294 294
Wind_Speed
12 13 13 13 14 13 12 11 12 13 13 13 13 13 13 14 15 15 14 13 11 12 16 20 21 22 17 3 5 6 23 36 39 45 47 38 29 25 24 24 21 18 17 17 16 14 14 13 10 7 9 13 15 12 12 12 11 8 5 5 4 2 2 1 3 3 4 4 4 2 4 10 7 6 11 9 11 16 16 15 14 13 14 15 16 15 15 15
12 12 12 12 12 13 12 11 11 11 12 12 12 13 13 14 15 15 15 15 14 13 13 17 20 21 21 6 7 4 15 33 42 45 41 30 27 26 24 24 22 19 18 17 16 16 16 17 12 8 13 19 18 15 14 14 17 11 3 4 4 1 3 5 4 5 6 8 9 8 8 11 8 5 5 4 8 12 13 14 14 17 16 14 14 13 14 14
12 12 12 11 11 11 11 11 11 11 11 11 11 11 11 12 13 14 15 16 17 17 14 14 17 20 24 10 6 7 7 29 45 44 36 30 28 27 25 23 21 20 18 16 14 14 15 17 15 14 23 24 20 21 19 14 14 11 7 6 2 2 6 13 15 13 13 15 14 11 10 12 8 5 5 8 10 9 7 7 10 16 15 14 13 12 13 13
11 11 11 10 9 9 9 10 10 11 11 11 11 12 12 12 11 11 13 16 16 18 18 15 14 18 24 17 3 9 1 21 38 36 31 31 28 26 25 22 20 19 17 12 9 10 13 15 16 21 26 19 20 27 20 13 11 8 7 5 1 5 7 13 19 18 18 18 15 13 12 12 9 8 9 9 9 6 3 4 9 16 16 15 14 13 12 12
11 10 10 10 9 8 7 8 9 11 11 11 12 14 15 15 12 10 11 14 15 17 20 18 14 16 25 25 9 6 3 7 22 29 30 30 28 25 24 22 20 18 16 14 12 11 12 14 18 23 23 13 15 20 14 13 15 9 8 8 8 10 7 9 17 17 16 16 15 12 10 8 9 12 8 5 5 2 3 7 14 17 16 16 14 12 10 9
11 11 10 9 9 8 7 8 8 9 10 10 12 13 15 16 16 14 13 14 16 16 19 20 14 13 22 29 22 15 13 6 17 27 28 28 27 25 24 22 19 15 16 20 22 20 19 22 24 21 17 13 14 12 10 14 16 10 8 14 16 14 10 10 15 12 10 13 11 9 8 8 10 12 11 12 11 7 10 14 16 16 14 14 12 10 9 8
13 12 11 10 9 8 8 8 8 8 9 10 11 12 12 14 16 17 17 18 18 18 19 21 17 9 12 21 27 34 32 18 20 25 26 27 25 25 25 22 20 18 19 24 26 26 27 30 29 23 15 11 13 12 20 27 24 16 6 10 17 18 16 13 15 12 10 14 12 10 10 8 8 8 11 15 13 11 13 14 14 14 12 11 10 9 9 8
12 12 11 11 10 9 9 9 9 10 10 10 11 12 10 11 14 15 17 18 19 21 19 21 20 11 5 8 21 37 36 24 21 24 25 24 23 25 25 24 25 23 25 26 24 24 26 26 21 19 14 8 10 11 20 27 20 12 7 8 13 16 17 15 15 14 14 15 13 12 11 10 11 11 11 11 11 11 10 10 10 10 8 7 7 7 7 8
12 13 12 12 11 11 10 9 10 11 11 11 11 12 10 10 12 13 14 15 16 19 20 22 20 17 11 10 23 31 26 21 18 21 23 22 23 25 26 28 30 27 27 25 23 24 24 24 18 18 15 10 11 7 11 15 7 6 11 12 13 14 15 15 14 14 14 12 11 11 11 14 14 10 8 7 10 10 9 9 8 7 7 6 5 5 5 7
13 13 13 13 13 12 11 10 10 10 11 11 11 11 11 10 11 12 13 13 14 14 18 22 21 21 18 23 33 24 15 17 15 17 20 19 20 23 26 28 28 28 28 24 23 23 23 26 26 28 24 16 15 13 14 14 8 13 18 16 15 14 11 11 13 11 10 8 8 10 8 9 6 5 3 6 9 11 10 9 8 8 8 7 6 5 5 6
13 13 13 13 13 12 11 10 10 11 11 11 11 10 11 12 12 13 14 13 12 12 14 19 22 22 23 34 37 20 14 17 14 15 16 15 17 20 24 26 25 26 27 26 24 20 16 18 19 20 18 18 20 19 19 20 20 21 21 15 11 12 10 9 9 7 6 5 6 10 7 4 2 4 6 12 11 10 10 11 9 7 7 6 6 5 5 5
13 13 13 13 14 14 13 12 11 12 11 11 11 10 11 12 12 14 16 14 11 13 12 14 20 21 27 39 36 21 19 18 14 14 12 11 15 16 20 22 23 23 22 25 24 21 16 10 9 9 11 16 15 12 14 21 22 17 14 10 4 7 8 7 6 3 4 3 5 7 4 2 4 1 10 16 13 11 10 10 9 8 7 6 5 4 4 3
13 13 12 12 14 15 15 14 13 13 12 12 12 13 12 11 10 10 15 16 12 12 12 12 14 21 30 32 27 23 20 18 14 10 8 9 10 12 16 17 18 19 18 20 21 21 21 19 20 20 16 13 8 10 15 15 13 7 6 6 1 5 5 6 6 2 4 4 5 3 2 4 5 3 15 17 15 14 13 12 11 10 8 8 7 5 5 5
13 13 11 11 12 15 16 16 15 14 13 14 14 15 14 12 10 7 11 18 16 10 11 13 10 17 28 23 20 26 21 17 15 12 12 10 8 9 12 14 15 15 14 16 17 17 17 19 26 26 20 15 12 15 12 5 5 2 2 3 2 3 2 5 7 4 4 1 3 3 1 5 6 7 17 17 16 17 15 15 13 11 11 9 8 7 7 6
13 12 11 10 9 10 12 13 12 12 12 13 14 15 15 13 11 8 7 15 21 14 9 13 11 12 20 17 18 24 21 17 18 18 17 13 10 10 11 14 15 14 13 14 14 14 10 11 20 21 14 13 12 8 4 4 4 4 3 3 3 3 1 5 6 6 4 2 2 3 1 4 5 11 19 18 18 17 15 16 15 13 12 10 9 9 9 8
12 12 11 10 8 7 7 7 8 9 10 11 12 13 15 15 12 9 6 7 16 20 12 11 15 18 16 12 15 21 24 24 22 18 16 15 14 13 12 12 13 14 14 14 12 12 12 13 20 22 16 10 5 3 4 4 4 4 3 1 3 4 3 3 2 7 6 2 2 2 1 3 3 10 21 20 19 18 16 16 16 15 13 12 11 10 10 10
12 12 11 10 9 8 7 7 7 7 9 10 9 9 14 20 16 9 8 5 6 15 20 14 11 16 17 14 16 22 28 27 22 16 13 15 16 14 12 9 11 12 12 14 13 15 18 17 14 14 16 11 5 3 4 4 4 5 4 2 3 2 3 3 2 9 11 4 4 4 1 4 4 7 20 21 19 18 17 16 16 15 14 12 12 12 11 11
12 11 11 10 9 8 7 7 6 5 7 10 8 5 10 19 19 14 12 9 6 8 16 19 11 8 11 20 21 19 24 26 23 18 12 12 16 16 13 12 11 8 10 13 14 17 18 15 9 5 10 10 7 7 4 1 1 2 3 2 3 3 3 5 4 7 12 7 5 5 2 6 7 4 17 21 18 17 15 15 15 14 14 13 12 13 12 12
12 11 11 10 9 9 8 7 7 7 7 8 7 4 4 11 17 22 24 23 22 13 8 18 17 5 1 18 21 14 19 26 24 20 13 9 12 15 15 15 15 14 12 10 12 18 13 8 8 5 7 7 7 5 1 4 4 4 2 1 2 4 2 3 3 5 11 7 4 5 5 8 8 3 11 19 17 15 12 11 13 15 15 14 14 13 13 13
11 11 11 11 10 9 9 8 8 7 7 7 6 4 2 4 7 17 30 35 31 22 13 17 19 10 3 14 23 15 15 24 25 23 19 12 9 12 16 16 19 23 14 5 7 13 11 8 7 5 5 6 7 6 4 4 3 3 2 3 4 4 4 5 3 5 13 7 3 4 6 8 9 7 7 15 14 12 10 8 11 15 16 15 15 14 15 14
12 11 11 11 10 10 10 9 8 7 8 8 6 5 5 5 4 8 21 27 24 21 21 22 21 16 10 14 24 20 16 23 27 25 22 19 13 11 18 17 14 15 10 4 5 7 10 10 5 4 5 6 5 6 3 1 1 2 4 3 4 4 5 6 3 4 11 6 3 5 7 9 11 11 1 11 11 9 12 11 10 14 16 16 16 15 15 14
12 11 11 11 11 11 10 9 10 10 10 9 6 8 11 12 12 11 14 15 16 19 19 21 22 21 16 13 20 24 24 24 26 28 25 23 21 14 16 18 11 7 9 6 5 5 9 8 6 9 7 3 3 6 5 6 5 4 3 3 3 3 5 6 3 5 9 3 3 5 7 8 10 10 9 9 7 6 11 12 9 10 13 16 16 16 15 15
12 12 11 11 11 10 10 10 11 9 7 7 7 10 13 14 13 12 13 11 11 16 17 18 22 23 21 15 14 20 26 22 21 29 28 22 21 17 14 14 8 6 9 8 6 5 6 3 11 13 8 3 5 9 8 6 6 4 4 4 1 3 2 3 3 7 9 1 2 3 4 6 8 8 11 11 8 5 0 4 6 7 10 14 16 16 16 16
11 12 11 11 10 9 9 9 10 7 6 8 9 10 11 10 9 9 9 8 6 10 15 16 19 22 22 19 13 12 20 22 21 26 27 22 16 11 10 9 6 6 6 8 11 10 4 6 12 10 7 6 5 10 10 6 5 3 2 5 1 2 1 3 5 7 7 1 1 4 4 5 8 8 8 11 16 16 12 10 9 10 9 11 15 17 17 16
11 11 11 11 10 9 7 7 8 8 9 9 8 9 8 6 5 6 5 6 3 7 13 12 15 19 21 22 14 6 11 19 23 24 22 21 15 6 6 6 6 4 0 4 9 9 5 9 10 6 7 8 6 6 7 4 4 4 1 4 4 1 2 5 7 5 4 2 2 4 5 3 6 7 6 6 10 12 15 18 18 18 16 13 12 13 15 14
10 11 11 10 10 9 7 7 9 8 8 8 7 7 5 3 4 4 3 5 3 7 10 9 10 14 18 23 16 2 5 11 17 24 20 18 15 7 5 6 5 4 1 3 5 4 4 11 9 5 5 8 7 4 3 4 4 3 1 5 5 2 3 5 5 3 3 1 4 4 5 1 4 6 5 6 6 7 12 17 20 23 22 19 14 8 6 6
10 10 11 10 10 10 8 8 9 8 7 7 7 5 3 2 4 4 2 5 4 5 7 7 7 10 13 20 18 5 1 8 11 21 22 15 14 11 7 4 5 5 2 2 4 2 4 10 9 7 7 6 6 4 3 3 3 3 1 4 1 4 4 3 1 2 1 1 4 5 4 3 1 3 5 6 5 7 9 11 16 21 22 21 17 10 6 3
11 11 11 11 11 10 10 10 8 8 8 6 6 4 2 1 3 3 4 4 4 4 5 5 5 10 9 12 21 14 5 9 7 15 22 15 14 15 11 5 3 6 7 4 3 1 3 6 6 6 7 6 4 5 5 1 1 4 3 0 5 4 3 3 3 1 1 2 4 6 5 3 1 3 5 4 4 6 7 6 10 15 17 19 18 14 11 9
12 12 12 12 12 11 11 11 9 8 8 6 6 5 3 1 3 2 5 3 3 3 3 5 5 10 10 6 16 18 11 11 8 11 20 19 14 11 10 6 5 8 14 11 5 2 1 2 3 3 5 5 4 7 6 2 1 8 5 3 3 1 2 3 3 1 2 5 2 4 5 2 2 3 4 3 3 3 5 5 7 11 13 13 14 13 13 13
11 11 12 11 11 11 10 10 9 8 8 7 7 6 3 2 3 4 5 1 1 2 3 6 3 9 12 5 10 15 11 10 11 13 19 24 23 18 11 7 8 7 9 11 6 0 2 1 2 4 4 6 7 7 5 3 5 10 5 4 4 3 3 3 2 2 4 4 2 2 2 1 1 3 3 1 0 2 3 4 6 9 10 10 11 11 12 14
11 11 11 10 10 11 10 9 10 9 9 8 8 4 2 2 4 6 3 1 1 3 4 5 3 6 9 4 4 11 7 8 14 13 13 17 23 23 13 6 8 6 4 6 5 4 6 3 3 3 5 9 6 4 4 2 5 9 4 2 3 2 3 3 4 4 5 2 4 2 2 2 2 3 4 3 3 3 3 3 5 7 8 8 9 9 10 12
11 11 11 11 11 12 11 11 11 10 10 10 7 2 3 2 5 3 0 2 1 2 2 2 3 4 5 4 3 6 4 5 10 9 5 5 8 12 10 3 3 4 4 5 4 5 5 2 5 5 4 11 7 2 6 5 6 9 6 4 4 2 3 2 3 3 1 3 3 1 3 2 2 4 4 4 5 5 5 4 4 5 7 6 8 10 10 11
11 11 11 12 11 13 12 12 12 10 11 11 5 2 5 5 2 1 2 2 0 1 1 2 4 3 3 4 4 4 3 3 7 7 3 2 4 4 7 8 6 3 2 2 2 5 4 3 8 5 3 12 10 3 4 5 5 7 4 3 3 3 4 2 3 2 2 5 3 1 2 1 2 3 4 5 3 5 5 4 4 5 7 8 9 10 12 13
10 10 10 11 11 12 12 12 12 10 12 11 3 3 7 4 1 1 2 2 1 2 2 1 4 4 4 4 3 3 3 2 4 6 5 4 5 4 5 10 10 4 2 3 2 3 2 3 6 3 3 10 7 2 1 2 3 4 1 2 3 3 3 1 2 1 2 5 5 4 2 1 1 2 4 6 3 3 6 5 4 7 7 8 10 11 13 14
9 9 9 9 11 11 11 11 11 11 12 9 4 6 5 2 2 2 1 3 1 1 2 1 3 4 4 3 3 2 2 2 2 5 6 4 3 3 3 5 7 4 2 3 2 1 2 2 4 1 3 5 4 4 2 0 2 2 1 4 2 2 3 1 2 3 2 2 4 3 1 2 2 2 1 2 3 3 5 6 5 7 7 8 12 13 13 15
8 8 8 8 10 10 11 11 10 11 11 6 6 5 2 3 2 3 2 1 1 1 2 2 3 5 4 4 4 4 1 1 2 4 4 3 1 2 2 2 4 5 3 3 1 1 2 2 4 3 3 2 3 5 4 2 2 2 3 2 2 3 5 2 2 2 3 2 3 2 2 3 2 2 2 2 2 4 4 5 6 7 7 10 14 14 14 17
7 7 6 8 10 10 10 10 10 10 9 5 6 2 2 1 0 2 1 1 1 1 2 1 1 2 2 2 4 6 3 2 3 4 2 2 2 2 2 2 3 5 3 2 1 0 1 2 4 2 1 3 4 5 5 4 3 2 2 1 1 2 4 3 1 4 5 1 3 3 3 4 2 1 2 1 4 6 6 7 7 7 11 14 17 16 18 21
6 5 5 8 10 10 10 10 9 8 6 7 6 2 1 1 0 1 1 1 1 1 4 2 0 0 1 0 2 5 4 3 3 4 2 1 2 2 2 2 3 6 6 3 1 0 1 2 5 2 2 4 6 3 2 5 5 5 1 1 2 3 2 2 2 2 2 2 4 5 4 3 2 2 3 4 5 5 6 6 5 10 15 17 18 19 21 23
6 4 5 9 10 10 10 9 8 5 5 7 3 1 1 1 0 0 1 1 1 2 3 2 1 1 1 2 1 4 3 3 3 2 2 1 2 2 2 1 3 7 8 4 2 1 1 2 3 4 3 4 5 4 1 4 5 5 3 3 2 3 2 1 1 2 1 2 3 4 4 2 4 4 5 6 6 5 6 5 5 12 17 17 18 21 23 24
6 3 4 9 10 10 10 7 7 6 6 4 3 2 1 1 2 2 2 1 1 1 1 2 2 2 1 1 0 2 2 3 2 2 1 2 2 1 3 2 3 6 7 5 4 2 2 2 2 5 3 2 3 2 2 1 2 3 4 4 3 1 1 1 1 2 3 1 1 2 4 4 5 3 5 6 6 5 5 3 7 15 18 19 21 24 25 25
6 2 4 8 8 9 8 6 9 9 5 3 2 2 1 2 4 3 3 2 1 2 2 2 3 3 2 1 1 1 2 3 2 2 1 1 2 1 2 3 3 5 4 4 4 3 1 2 1 4 4 2 2 2 3 3 2 1 1 2 1 0 3 3 2 2 2 2 3 2 3 7 5 3 4 5 5 5 3 3 10 18 20 21 25 25 25 25
5 2 4 8 8 7 5 6 8 6 4 3 2 2 2 3 4 3 3 2 2 2 3 3 3 3 2 1 1 1 1 2 1 2 1 1 1 1 0 3 4 4 2 2 1 1 1 2 1 3 3 3 4 1 4 3 2 2 1 1 3 2 3 4 1 3 1 1 1 2 2 6 5 4 5 4 2 5 7 8 13 20 22 24 26 26 25 25
4 3 4 6 6 5 4 5 5 5 3 2 3 3 3 3 2 2 2 1 1 1 2 2 1 2 2 1 2 2 1 1 1 1 1 1 0 1 1 1 3 3 2 1 1 1 1 2 2 4 4 4 5 2 3 1 2 2 1 0 2 0 2 5 4 3 1 2 1 2 2 6 5 3 5 2 6 12 15 15 17 22 25 25 26 27 27 26
3 3 4 6 6 3 3 3 1 1 1 1 3 3 3 2 2 2 1 1 1 2 2 1 1 2 3 2 3 2 1 1 1 1 2 2 2 2 2 0 2 2 1 1 1 1 1 1 2 3 5 6 6 5 4 4 2 1 2 1 1 2 5 3 2 3 0 4 4 3 4 6 4 3 3 7 13 17 20 22 23 24 25 25 26 27 27 27
2 2 4 9 7 2 5 5 6 5 2 2 4 2 2 3 2 2 2 2 2 2 2 2 2 4 4 3 3 2 0 1 1 1 1 1 2 2 3 1 0 1 2 1 1 1 1 1 2 3 2 3 4 4 3 3 2 1 1 1 2 3 4 1 1 3 1 3 4 5 5 6 7 6 7 10 10 12 19 25 26 25 25 26 26 26 27 27
2 1 2 7 9 9 10 7 8 9 5 4 4 1 1 2 1 2 3 2 2 3 3 3 3 4 3 2 3 2 1 1 1 1 1 2 2 2 3 4 2 2 2 1 2 2 2 1 2 4 4 4 5 7 4 1 2 4 3 2 4 4 3 4 3 2 3 2 2 7 7 7 12 10 8 9 8 9 17 23 26 26 26 26 25 25 27 28
2 1 0 3 6 9 12 8 8 9 6 5 3 2 3 2 0 1 1 0 2 3 2 2 2 2 2 3 3 1 1 1 2 1 2 2 1 2 3 4 4 2 1 1 2 2 3 1 2 4 5 6 7 8 4 1 3 7 6 4 5 5 4 6 4 5 4 3 4 7 5 5 11 12 9 10 9 10 18 24 26 27 27 26 25 25 28 31
1 1 2 3 1 2 5 5 6 10 8 4 3 2 4 2 1 2 1 0 2 2 1 1 2 3 4 4 3 3 2 1 1 1 2 1 1 2 2 2 3 2 1 1 1 2 4 1 2 2 5 8 8 9 6 3 5 7 7 7 6 6 7 8 9 7 6 4 8 6 2 6 13 13 11 13 14 17 23 27 27 27 27 26 24 26 31 33
4 4 4 4 3 4 6 5 8 11 8 4 2 2 4 4 4 3 2 2 0 2 1 1 4 4 5 3 3 4 3 1 0 3 2 2 2 2 2 1 1 2 1 1 1 2 3 1 2 1 5 9 9 10 7 4 5 6 8 9 7 8 10 10 10 7 8 10 14 11 11 14 16 14 14 18 23 24 26 27 27 28 28 25 25 28 32 32
5 4 5 6 7 7 8 7 7 7 4 2 2 2 4 6 5 3 2 4 1 1 2 3 4 3 5 3 3 2 4 4 2 2 4 4 1 2 2 2 3 2 1 1 1 2 1 1 0 3 3 8 8 6 2 2 4 7 10 10 6 7 8 9 8 6 7 11 14 12 12 14 15 15 15 20 23 23 24 26 27 28 27 25 25 29 31 29
5 5 7 8 6 4 4 3 4 4 2 1 2 3 3 4 6 5 3 2 2 2 4 5 3 3 3 2 2 2 3 4 3 1 4 4 1 3 2 2 6 4 1 1 1 1 2 1 2 5 3 7 6 4 4 4 4 6 11 12 7 6 6 6 5 5 7 7 7 6 7 8 9 10 14 21 25 23 23 25 26 27 27 25 26 29 30 27
8 8 8 7 3 1 2 2 3 3 2 1 2 4 3 3 8 8 3 1 2 2 3 6 7 5 3 1 4 3 3 4 3 2 3 2 1 2 3 4 7 6 3 3 1 0 2 2 1 3 1 6 6 5 5 5 5 3 7 7 6 5 4 4 4 6 8 6 3 4 6 6 7 10 11 17 21 21 23 25 26 27 26 25 25 27 27 26
Wind_Direction
69 68 67 64 63 63 65 67 64 61 63 64 63 58 51 47 41 39 33 28 28 24 28 25 23 20 11 23 167 62 32 29 34 38 40 36 29 29 26 26 25 21 21 28 41 49 62 71 71 83 89 80 71 66 71 65 58 70 76 70 82 90 16 277 198 152 125 111 123 142 94 116 117 93 100 85 80 83 83 83 85 101 109 118 129 143 152 149
68 67 67 65 63 63 65 68 67 63 62 63 63 60 55 51 47 45 41 39 36 27 28 26 24 14 4 3 177 129 30 26 36 40 37 34 32 32 27 28 30 24 24 35 44 48 63 76 81 96 85 68 57 62 72 56 50 56 85 79 67 98 30 38 86 87 94 108 95 86 90 104 115 105 105 85 63 73 80 79 95 104 104 115 127 140 148 148
68 68 68 67 65 64 66 67 66 62 60 59 58 54 48 46 48 50 47 45 43 37 33 29 26 15 7 1 185 159 28 23 31 32 30 32 34 32 30 31 31 28 31 41 49 54 70 83 91 94 81 66 53 65 63 42 47 43 57 81 67 129 53 54 78 88 103 114 97 87 90 88 94 95 105 114 84 62 74 87 106 108 111 120 123 135 143 143
67 68 68 66 64 64 65 64 63 59 56 56 54 50 42 39 43 48 46 42 42 39 35 32 29 22 18 17 144 177 104 26 24 21 26 32 34 35 34 33 34 36 38 44 50 63 80 89 97 88 77 61 49 63 50 29 62 42 47 96 105 103 63 57 84 95 104 110 100 96 91 75 76 97 110 116 90 48 52 120 127 122 121 120 123 129 134 138
62 63 61 59 58 57 59 61 60 55 54 57 56 51 46 41 41 43 41 35 35 36 34 33 33 37 35 36 64 177 191 26 11 17 30 33 36 40 39 38 40 42 46 57 66 77 89 92 95 78 65 45 41 58 38 37 82 70 46 70 69 83 77 68 88 96 101 102 96 84 76 80 87 80 74 89 93 74 95 129 130 123 123 123 125 125 125 130
61 59 58 53 51 50 53 57 55 55 57 62 57 49 48 46 48 49 45 39 36 36 34 32 35 54 56 55 69 86 91 66 1 19 32 34 40 45 45 43 45 49 54 63 70 78 83 83 86 75 63 55 47 56 45 52 90 94 45 58 70 81 87 82 85 91 97 89 80 77 90 104 92 67 61 81 92 108 114 122 122 117 120 122 120 117 116 119
60 56 54 48 46 45 47 52 51 58 62 64 56 45 47 47 50 52 47 45 42 40 36 34 34 52 71 63 67 71 69 50 14 25 33 36 45 51 53 52 52 56 59 61 64 72 76 76 80 82 80 69 59 68 71 70 82 95 77 65 78 85 88 88 85 85 83 83 88 108 110 83 79 81 77 87 98 116 118 120 121 117 120 121 121 117 114 119
48 44 42 40 40 41 44 50 52 60 64 59 48 41 43 42 44 45 43 42 43 43 38 37 34 35 65 56 57 58 48 24 16 29 33 41 51 55 58 59 57 56 58 59 61 69 74 76 80 82 76 78 93 94 82 74 63 72 99 93 89 90 93 92 88 87 84 95 109 107 96 83 97 106 93 100 121 127 128 131 127 123 124 127 130 126 128 130
36 35 35 36 36 39 43 51 57 62 61 53 46 42 41 37 36 36 38 37 41 44 41 41 39 43 66 68 62 55 30 7 13 26 33 46 56 58 60 59 56 55 58 61 64 68 74 79 87 94 94 98 103 97 89 85 52 77 108 107 102 100 102 97 91 93 91 101 111 92 94 109 104 92 92 120 142 150 154 145 139 138 133 133 138 138 148 144
35 35 37 37 37 40 45 53 59 60 55 50 45 42 40 38 37 36 37 35 39 43 42 43 41 46 57 59 62 57 12 8 17 21 33 45 56 60 59 57 53 52 54 58 64 68 76 85 89 94 96 92 88 81 85 100 122 121 112 108 108 108 107 102 100 99 90 89 97 101 129 137 99 37 113 148 141 150 155 144 139 139 135 130 128 124 128 129
38 39 42 41 42 46 51 59 63 60 54 48 43 42 43 41 43 41 34 33 36 39 42 44 40 41 51 56 59 51 15 21 18 19 29 37 49 53 52 51 48 47 50 53 57 61 76 97 97 88 85 89 91 84 92 113 128 123 112 99 93 98 92 86 100 99 86 85 107 122 140 164 4 5 157 162 148 148 147 141 141 139 139 133 124 118 111 110
40 42 45 47 48 51 60 68 67 63 54 47 44 41 41 40 45 42 32 32 38 40 41 45 40 39 52 55 51 39 26 25 18 18 18 26 40 47 49 45 41 42 46 52 55 58 68 99 114 93 96 106 99 87 112 125 124 121 113 100 61 65 63 41 58 83 91 121 153 126 87 346 317 347 157 160 158 162 156 152 158 156 156 150 146 145 137 149
40 42 48 53 55 58 65 70 68 64 54 50 46 39 36 30 32 30 28 34 41 45 42 47 46 41 53 56 43 35 33 27 24 28 31 39 46 55 53 44 43 44 47 56 58 63 70 81 93 95 97 102 104 112 129 130 115 118 100 100 67 27 19 6 29 69 103 130 184 138 26 299 298 181 159 162 167 170 172 171 172 172 172 169 169 174 178 193
40 41 47 54 61 64 68 72 72 68 60 53 48 43 36 26 21 15 35 41 40 48 46 47 50 44 55 61 39 34 34 31 35 48 56 59 68 71 58 50 50 46 50 63 68 70 75 84 86 85 80 82 106 120 122 107 77 82 45 55 48 53 317 332 16 36 78 132 204 96 75 258 277 189 167 170 176 175 179 180 180 181 178 179 184 192 197 204
39 39 42 49 59 66 67 69 65 60 53 44 39 38 34 30 28 27 56 50 42 47 57 52 51 52 60 58 34 29 33 39 39 44 47 51 59 57 52 54 56 53 51 61 71 74 84 101 80 67 65 83 104 109 61 11 29 32 49 360 355 74 294 314 16 43 54 268 234 84 140 260 266 197 178 176 184 185 185 185 186 186 184 190 197 201 210 218
38 36 38 41 45 51 52 47 42 45 44 34 30 31 30 32 35 46 72 63 47 46 51 59 52 55 59 40 24 25 30 35 34 37 40 39 43 41 45 60 67 66 61 62 71 80 90 92 69 53 51 64 71 65 42 28 3 6 68 38 343 42 9 324 13 24 21 327 321 36 214 269 293 196 184 182 189 192 189 189 188 189 192 197 204 212 221 230
34 33 33 33 34 35 33 32 37 47 43 30 25 30 36 39 41 52 56 50 63 49 46 55 56 61 58 28 16 18 23 28 29 36 40 38 37 34 41 62 70 74 81 80 76 77 77 71 66 51 44 42 17 46 67 26 350 343 23 37 353 7 17 1 329 2 15 16 335 354 200 247 291 201 190 189 192 194 192 191 189 192 199 204 212 220 228 239
29 29 29 28 26 23 21 25 28 26 21 14 11 22 52 53 52 59 65 64 78 58 42 40 41 79 49 17 13 12 20 26 28 34 39 41 41 34 38 50 60 80 86 75 56 54 62 58 67 65 32 27 14 37 73 63 234 289 339 2 347 338 18 19 334 355 12 359 334 2 345 283 302 228 195 194 194 196 193 192 194 199 205 209 217 226 235 243
24 24 24 23 21 19 14 13 13 3 358 4 10 15 73 73 60 56 61 64 63 63 38 26 34 95 27 7 14 17 26 29 28 33 37 40 43 43 52 59 63 71 66 53 31 33 47 55 55 50 20 10 360 16 160 203 189 206 247 170 27 345 319 330 310 3 12 348 326 5 342 308 318 293 203 196 194 196 194 197 206 208 209 215 223 231 238 244
20 20 19 19 18 16 11 11 12 6 8 16 20 24 92 90 57 48 53 59 64 69 64 45 46 71 73 14 22 29 35 34 31 33 33 29 35 44 48 52 57 57 48 30 28 27 44 61 40 22 352 332 326 326 270 235 205 180 142 110 57 14 317 301 283 15 22 5 298 344 338 322 333 322 229 192 186 191 194 201 214 214 215 221 228 236 242 248
18 16 14 16 16 13 12 11 10 15 30 34 35 59 84 82 91 74 63 64 66 66 59 52 51 52 49 26 26 31 35 37 36 36 32 30 39 43 38 40 48 42 16 17 65 33 47 59 22 332 303 293 313 332 342 48 56 101 107 106 58 26 315 303 269 358 25 30 281 342 2 351 354 348 334 160 165 188 199 208 220 221 222 225 232 242 247 251
16 14 12 13 13 14 12 9 17 25 31 33 53 83 88 93 102 99 87 81 66 57 51 45 45 43 41 36 30 31 33 32 29 30 29 33 46 54 45 47 53 30 2 26 71 29 45 51 338 318 306 292 356 359 37 61 51 50 68 100 56 4 302 307 315 338 10 42 274 346 21 8 3 11 49 110 148 200 210 221 241 243 239 236 238 247 248 247
15 14 12 11 11 13 11 12 20 23 24 37 62 88 95 99 104 98 93 95 69 49 39 36 35 30 30 32 29 34 41 36 16 17 21 26 42 52 52 52 54 39 24 39 68 51 57 5 319 324 337 54 43 14 30 42 44 47 52 79 2 340 348 320 330 336 340 297 235 358 46 27 13 27 44 57 66 59 248 260 298 296 275 263 259 258 253 248
15 15 13 11 13 13 16 19 18 20 36 51 64 86 103 101 104 113 99 94 83 40 28 29 27 23 21 17 15 36 48 42 20 13 17 21 31 44 50 52 54 48 41 59 73 80 86 321 324 341 22 62 54 23 29 27 17 1 56 93 78 339 9 263 285 327 333 290 138 38 53 22 9 24 26 34 51 50 38 30 10 356 338 299 280 267 256 254
18 18 15 14 16 16 24 27 21 32 45 53 65 80 101 108 110 131 110 83 70 11 14 21 19 18 13 7 10 53 58 44 27 12 13 22 27 44 51 43 52 53 129 85 72 80 60 349 355 26 32 43 63 41 25 18 8 341 324 133 144 161 268 273 295 330 10 28 15 51 66 10 353 18 12 7 37 36 28 30 19 14 14 353 316 279 261 256
22 23 21 18 18 21 29 30 27 33 41 48 60 70 89 120 127 144 123 70 26 341 359 10 10 12 11 6 3 57 69 35 23 14 16 25 27 52 56 21 47 56 196 131 78 85 26 6 28 62 29 35 55 44 7 27 32 347 289 147 138 127 290 288 309 355 70 3 336 48 97 138 332 4 349 338 11 18 19 21 17 19 20 13 359 324 279 259
24 26 27 26 26 29 36 35 29 30 35 41 45 56 73 99 139 156 104 48 10 333 354 359 2 8 12 12 15 72 65 342 5 17 20 28 32 60 70 13 44 29 313 144 66 31 355 3 21 34 25 34 36 9 340 30 27 304 186 122 25 306 285 262 327 40 96 253 339 17 79 121 333 343 319 326 14 19 9 7 9 19 27 28 30 36 50 51
23 25 27 29 31 33 39 34 27 28 31 29 28 38 42 34 183 169 94 69 348 334 360 352 1 10 13 26 36 66 59 358 13 14 19 34 35 56 70 47 78 31 13 106 115 344 1 8 7 13 18 20 11 330 302 16 37 267 229 16 304 285 229 189 128 86 330 60 12 348 33 83 262 287 311 338 39 18 355 345 354 13 29 39 46 52 52 43
21 23 23 28 29 30 34 31 25 26 21 14 15 6 347 356 185 119 76 103 326 343 3 353 354 357 358 34 40 45 46 33 34 12 27 43 37 57 78 49 71 53 41 70 122 201 24 8 341 26 31 360 317 304 301 151 248 288 298 350 344 52 115 127 104 102 39 59 47 331 19 73 256 288 314 355 51 356 323 314 335 5 26 36 40 40 30 16
18 20 22 26 26 26 29 25 21 20 14 6 360 352 2 81 121 70 47 131 331 340 330 355 351 345 357 26 27 21 32 34 19 16 35 43 41 54 78 54 49 67 51 56 81 220 325 338 6 50 25 323 299 305 309 200 273 311 339 35 36 39 53 75 58 81 62 20 257 267 6 106 245 284 261 273 42 248 279 305 330 359 14 22 24 17 8 4
15 17 20 22 22 21 21 18 16 13 7 360 350 355 101 88 73 85 73 237 341 339 340 1 348 356 16 52 16 359 11 19 13 20 29 30 34 38 44 37 25 42 45 30 33 352 356 25 5 360 353 340 326 319 333 287 321 345 3 50 55 6 13 34 353 33 71 329 251 235 349 82 159 254 233 247 276 237 226 263 302 340 357 8 10 358 353 358
12 13 13 15 16 14 11 10 10 5 358 359 356 23 132 45 28 92 238 319 334 332 356 339 327 4 23 45 25 349 355 10 12 28 35 22 34 33 39 43 353 24 25 5 10 356 354 351 330 318 352 7 9 350 347 344 358 7 4 21 57 21 4 23 333 9 93 260 233 208 353 50 195 247 226 241 275 248 223 236 271 326 344 343 349 350 345 346
9 9 9 11 10 5 5 4 3 1 354 357 5 77 89 72 43 214 282 337 19 329 352 289 316 353 19 28 15 343 3 2 359 17 21 46 60 37 37 31 11 35 43 7 13 5 340 299 344 357 1 8 21 54 360 339 352 2 353 23 76 77 33 339 296 348 310 276 276 330 348 324 279 273 208 197 237 242 232 245 281 319 336 329 332 341 339 339
6 8 7 7 4 358 1 360 357 360 354 353 12 74 61 71 169 186 292 275 243 339 351 301 326 355 40 45 348 327 36 11 356 20 7 25 45 15 11 13 11 32 92 59 49 30 30 311 345 24 341 353 18 56 328 281 321 324 258 87 91 113 84 333 261 265 282 287 300 331 3 168 244 292 210 190 204 245 237 242 287 314 327 337 337 338 338 338
2 6 5 2 360 354 358 357 354 360 352 349 38 70 76 151 219 143 208 253 266 326 309 359 39 33 11 353 333 357 65 343 8 49 19 26 59 9 356 347 356 21 74 62 36 31 78 269 282 292 294 330 4 338 325 136 312 297 122 70 39 127 119 149 213 200 230 305 304 311 289 193 214 295 294 174 211 253 240 238 292 325 330 347 345 338 338 340
358 0 2 359 356 355 358 354 352 358 351 0 59 65 125 194 208 149 171 248 145 227 292 334 44 56 356 319 341 3 35 339 21 56 22 26 74 8 8 302 342 17 54 91 75 354 59 264 285 334 304 326 16 329 333 37 327 320 52 35 265 171 124 105 315 344 55 50 284 294 306 296 321 320 352 48 263 274 285 272 294 327 335 343 343 340 342 343
352 353 357 357 357 358 356 352 355 355 352 35 81 93 201 186 130 157 35 16 171 124 90 51 357 50 353 314 327 329 340 355 17 50 32 8 30 6 3 345 1 18 20 72 145 289 100 272 298 360 301 322 358 326 331 26 46 47 37 306 241 84 86 95 40 358 34 44 276 326 324 297 335 317 270 303 278 283 310 296 288 327 342 341 343 344 342 340
349 346 354 359 359 357 354 355 355 352 11 59 85 121 163 114 262 234 5 38 162 55 81 115 213 151 189 173 308 310 343 10 9 47 50 5 41 24 2 356 11 13 1 11 81 301 79 323 299 274 230 308 350 9 342 3 35 74 97 231 96 68 14 32 67 24 8 314 289 316 321 269 229 228 226 234 242 260 295 294 298 337 342 339 339 340 337 335
348 342 1 2 359 359 359 358 353 358 50 72 107 173 123 143 201 105 95 112 119 71 86 158 165 63 146 151 266 303 355 32 27 53 62 44 39 19 36 23 339 1 3 25 82 313 19 64 289 273 248 303 354 49 78 331 357 44 48 357 37 114 162 307 60 138 187 289 294 316 332 290 235 213 196 216 223 230 266 280 319 332 332 331 332 335 334 332
349 340 358 358 359 359 356 2 17 38 67 87 151 167 128 160 141 102 113 141 143 103 103 188 154 84 96 163 86 332 15 48 56 62 48 46 53 10 29 29 330 349 6 42 65 351 1 75 274 291 325 353 353 33 125 131 339 3 27 24 358 359 79 40 15 119 131 171 232 320 316 276 253 211 185 209 218 218 237 267 321 324 327 332 335 335 333 332
354 354 350 355 3 358 356 24 39 51 83 97 117 128 108 149 141 108 96 106 118 110 116 135 129 124 141 115 61 4 28 41 46 59 39 22 55 33 6 21 351 338 356 32 40 13 5 78 254 301 342 3 259 231 157 151 173 188 85 100 140 330 72 75 327 319 85 141 173 161 285 273 261 206 192 208 214 229 272 311 316 323 329 334 335 335 332 331
13 20 346 351 357 354 15 52 42 47 99 100 80 107 122 135 141 127 111 110 103 95 100 105 96 108 134 122 90 111 79 61 46 63 81 297 44 102 66 21 352 338 21 60 359 344 80 94 69 283 282 271 278 236 130 156 177 167 201 135 133 132 106 114 216 271 333 346 172 129 261 271 265 223 202 188 216 297 316 315 315 326 331 331 331 331 331 331
24 20 345 349 351 359 51 68 35 27 67 97 87 97 117 129 135 143 137 99 106 114 90 90 92 100 146 183 122 123 139 137 159 125 139 214 70 128 153 16 342 338 28 124 242 334 31 70 25 299 292 314 328 15 86 56 73 122 274 187 140 209 124 140 165 175 219 278 159 101 270 267 278 258 210 228 330 322 319 321 323 326 327 327 327 329 331 333
34 31 15 7 346 334 94 107 111 69 77 105 82 77 94 95 92 126 156 122 120 138 118 124 161 123 134 137 110 128 188 155 147 135 141 165 147 140 165 313 351 4 44 124 108 23 327 83 63 360 346 347 347 358 357 349 24 173 261 267 164 102 96 111 112 89 293 239 160 141 248 255 278 316 275 297 319 319 316 321 324 321 320 322 324 330 333 332
45 49 32 25 14 52 108 118 140 141 149 113 95 100 99 71 65 93 112 123 122 129 126 132 153 133 126 110 91 82 29 83 159 161 100 159 169 139 139 144 9 103 111 90 75 102 167 169 122 94 49 344 317 306 296 299 307 281 247 173 173 136 124 163 78 83 264 243 154 166 229 261 284 302 306 305 313 312 310 315 318 316 317 320 324 330 331 328
81 105 22 26 36 69 85 98 125 130 151 143 109 142 133 92 89 103 92 100 117 116 106 116 144 132 97 94 97 78 9 21 66 133 148 205 211 137 122 134 135 130 124 67 40 91 109 163 189 168 174 201 237 251 253 335 317 285 270 219 212 209 153 123 111 152 201 190 198 229 238 275 289 292 300 302 303 303 304 308 311 312 316 319 323 327 326 325
91 93 6 33 43 66 73 78 106 120 147 157 134 165 157 129 297 114 86 285 152 138 86 72 158 165 147 146 128 119 204 359 22 133 170 202 195 118 124 139 132 134 201 277 348 80 97 315 255 194 216 234 243 256 265 30 263 260 262 238 217 219 170 144 183 206 155 113 269 252 215 245 278 287 292 294 301 303 301 304 306 308 312 315 319 324 325 328
103 148 131 108 90 78 71 68 103 112 119 129 118 139 145 137 165 168 190 221 170 182 126 5 274 230 190 168 132 133 161 39 359 212 173 186 189 109 96 129 136 150 218 279 336 87 111 248 249 187 259 266 262 268 268 245 247 252 253 247 229 211 191 196 218 205 156 189 251 261 261 265 276 286 291 292 296 295 296 301 303 304 308 312 320 326 327 329
111 124 128 119 118 121 111 115 119 110 101 91 88 131 159 166 183 201 161 105 23 260 191 248 268 230 193 175 107 132 183 163 248 241 190 165 206 159 108 70 153 183 232 65 15 62 108 235 234 158 292 281 269 273 266 237 254 263 255 247 229 212 210 218 230 210 194 233 254 268 283 279 276 279 283 290 295 295 297 302 304 306 310 317 323 327 327 326
141 139 138 120 103 101 108 118 120 105 82 65 98 160 172 167 181 207 160 140 167 243 182 226 260 197 173 165 114 137 212 181 157 219 181 151 186 199 180 173 156 154 354 55 9 29 102 267 42 83 327 293 288 306 322 186 242 266 273 268 239 219 225 231 239 219 209 244 258 266 276 276 275 280 287 295 301 303 303 305 308 312 317 320 322 325 325 323
166 162 151 127 97 84 104 110 104 100 88 67 135 172 186 193 187 166 136 165 176 172 196 205 177 118 106 136 170 239 226 167 121 143 167 157 188 195 180 162 154 143 89 181 278 35 120 302 12 60 9 287 289 335 342 318 291 274 282 282 251 213 215 224 227 199 194 224 248 268 271 262 272 295 305 307 309 309 307 308 312 315 317 319 321 324 323 320
159 157 157 140 100 90 140 99 60 92 150 200 150 164 191 216 185 157 115 257 193 157 208 190 153 117 87 211 235 230 176 146 108 99 127 128 159 143 105 130 147 146 158 155 109 9 124 102 59 69 350 273 283 310 306 324 341 289 267 256 216 200 219 248 256 219 204 201 193 231 248 257 297 317 313 307 307 307 306 310 313 313 315 318 321 322 320 318